Погода в Карловке

Украина / Полтавская область     49°27′18″N   35°08′04″E
темп.,
°C
ветер,
м/с
пор.,
м/с
влажн.,
%
обл.,
%
осадки,
мм/ч
давл.,
гПа
погр.,
м
13 мая, чт
чт1300:00+8вюв489290 0.6 1012227
03:00+5юв4994100 0.6 1013187
06:00+5ююв35955 0.0 1013138
09:00+11ю46753 0.0 1013661
12:00+16ю565599 0.0 10131459
15:00+18ю46485 0.0 10131655
18:00+18ююв355349 0.0 1013665
21:00+13в336091 0.0 101322
14 мая, пт
пт1400:00+11в4773100 0.0 1013101
03:00+12вюв4689100 0.0 101285
06:00+12вюв41090100 0.0 1011218
09:00+19юв7107799 0.3 1010698
12:00+22ююв8963100 0.0 10101105
15:00+23ю6857100 0.0 10091586
18:00+22ю4763100 0.2 1009386
21:00+16юз3874100 0.2 1009136
15 мая, сб
сб1500:00+14ююз48804 0.0 1010137
03:00+12ююз48925 0.0 1011135
06:00+11ю38883 0.0 1012178
09:00+17юз47700 0.0 1013595
12:00+21юз68560 0.0 10131552
15:00+22юз5749100 0.0 10132274
18:00+21юз3557100 0.0 1013469
21:00+18ю2263100 0.0 101332
16 мая, вс
вс1600:00+16ююз227020 0.0 101319
03:00+14ююв22765 0.0 101411
06:00+14в11780 0.0 101411
09:00+20в226010 0.0 1014458
12:00+23всв224692 0.0 10131628
15:00+24всв334387 0.0 10121943
18:00+23всв355431 0.0 1011312
21:00+18св466715 0.0 101076
17 мая, пн
пн1700:00+19св51271100 0.0 1009319
03:00+16св41089100 0.0 1008167
06:00+16всв41084100 0.0 1007214
09:00+21вюв61062100 0.0 1006437
12:00+24юв7104976 0.0 10051057
15:00+26юв67455 0.0 10041447
18:00+24ююв696667 0.2 1004581
21:00+19юв41087100 2.2 1005198